Location: Julian California
(33.0790°N, 116.6010°W)
Time: 13:11:25
(UTC-07:00)

In-Cosmos 22 - Pass Details

Date: 14 June 2018
Orbit: 786 x 876 km, 81.2° (Epoch: 19 June)

Event Time Altitude Azimuth Distance (km) Brightness Sun altitude
Exits shadow 22:20:14 53° 180° (S) 994 4.2 -23.7°
Maximum altitude 22:21:34 85° 97° (E) 827 4.0 -23.8°
Drops below altitude 10° 22:27:08 10° 9° (N) 2,451 7.2 -24.5°
Sets 22:29:34 0° 9° (N) 3,403 8.0 -24.8°
